FENGYUN 1C DEB, 38163

Orbit data source: Space-Track

FENGYUN 1C DEB, 38163 is space debris in SSO originally from a launch on Mon, 10 May 1999 UTC launched from the Taiyaun Space Center, China (TSC). Fengyun 1C debris stems from the Chinese weather satellite Fengyun-1C, which was intentionally destroyed by a Chinese anti-satellite missile in 2007. This event dramatically increased the amount of space debris, with thousands of trackable fragments posing hazards to satellites and human spaceflight. The Fengyun 1C debris cloud has become a focal point in discussions about space sustainability and the need for international regulations to prevent the creation of new debris.

Loading next visibility...
Identifier
38163, 1999-025ERL
Orbit
SSO
Country
Flag of CNCN / PRC
Related business
Manufacturer
Unknown
Mission
Spacecraft
Bus & Motor
Unknown
Mass
Unknown
Launch date (UTC)
1999-05-10 (26 years ago)
Launch vehicle
Unknown
Launch site
Taiyaun Space Center, China (TSC)
Object type
Payload
Rocket body
Debris
Shape & HBR
Unknown shape, 0.1 m
Radar Cross Section
Small (<0.1 m²)

Expand to show TLE details & history
Last TLE update: 1 day ago

TLE from 1 day ago
0 FENGYUN 1C DEB
1 38163U 99025ERL 25309.34228724  .00001192  00000-0  73900-3 0  9992
2 38163  99.1329 345.5864 0075482 347.3831  12.5445 14.05773132240163
Epoch: 2025-11-05T08:12Z
TLE epoch observation values (Epoch: 2025-11-05T08:12:53.617Z)
Latitude
-0.00006°
Longitude
177.54667°
Altitude
823.33 km
Speed
7.469 km/s
True Right ascension
23h 02m 20s
True Declination
0° 00' 00"
Sunlit
Object was in full shadow at epoch
Visualization orbit readout
Latitude
Unknown
Longitude
Unknown
Altitude
Unknown
Speed
Unknown
Apparent Right ascension
Unknown
Apparent Declination
Unknown
Sunlit
N/A
Visualization observer readout
Local Sidereal Time
08:13:45
Azimuth
Unknown
Elevation
Unknown
Doppler factor
Unknown
Orbital elements
Apogee altitude
925.789 km
Perigee altitude
816.352 km
Semi-major axis
7,249.207 km
Eccentricity
0.00755
Inclination
99.1329°
RAAN
345.5864°
Arg. of periapsis
347.3831°
True anomaly
12.73411°
Mean anomaly
12.5445°
Eccentric anomaly
12.63913°
Mean motion
3.51647 °/min
Orbital period
102.38 mins
BSTAR
0.000739
Loading maneuver chart data...
Computing Atmospheric mass density...

Documentation

Showing up to 5 results
|